STARLINK-21

decayed
NORAD ID: 44245 Int'l Des: 2019-029 Owner: SPXS Country: US Constellation: starlink
LEOCIRCULAR
Group

About STARLINK-21

Description loading...

Altitude History

Altitude vs Time

uPlot chart will show altitude changes over time

Two-Line Element Set

1 44245U 19029L 20265.98160791 .31154212 12542-4 14539-2 0 9997
2 44245 53.0037 83.3120 0006865 333.5091 155.9539 16.42788868 74360
Epoch: Sep 21, 2020 • Age: 43674 hours

Current Status

Position data unavailable
Launch Date May 24, 2019
Age 6.3 years
Decay Date Sep 22, 2020
Type internet

Technical Details

Classification Payload
Mass 227.00 kg
Dry Mass 219.00 kg
Total Mass 227.00 kg
Length 0.20 m
Diameter 2.80 m
Span 9.00 m
Shape Box + pan
Manufacturer SPXS
Bus Type Starlink
Phase Status Reentered
Owner/State SPXS/US

Large Constellations

Loading constellations...